ARCTICSAT 1 (RS74S)

Last updated on Fri Dec 19 2025 00:03:12 GMT+0000 (Coordinated Universal Time)

1 61762U 24199AD 25352.60732203 .00045352 00000+0 73193-3 0 9991 2 61762 97.3225 223.6393 0006504 180.3514 179.7736 15.52745668109769
UTC large
Height (km)
Speed (km/s)
/
Latitude / Longitude
Inclination (degrees)
Orbital Period (minutes)
Azimuth
Elevation
Range (km)
Doppler Factor

Next 0 passes for location: London (51.5072 / 0.1276)

Sorry there are no passes over London.